This demonstration page uses our WeatherBlox Daily Observations layout. Learn more.

Left ArrowRight Arrow

Hourly Observations for March 22, 2016

Temp ( °F °C ) Dew Point ( °F °C ) Humidity (%) Winds ( mph kmh ) Pressure ( in mb ) Visibility ( mi km ) Precip ( " mm )
12:15 am 00:15 Clear 59 15 27 -3 29 29 SW 14 22 29.59 1002 10 16 0.00 0.00
12:35 am 00:35 Clear 57 14 27 -3 31 31 SW 16 26 29.59 1002 10 16 0.00 0.00
12:55 am 00:55 Clear 57 14 27 -3 31 31 SW 16 26 29.59 1002 10 16 0.00 0.00
1:15 am 01:15 Clear 57 14 25 -4 29 29 SW 12 19 29.59 1002 10 16 0.00 0.00
1:35 am 01:35 Clear 57 14 25 -4 29 29 WSW 10 17 29.59 1002 10 16 0.00 0.00
1:55 am 01:55 Clear 55 13 25 -4 31 31 SSW 17 28 29.59 1002 10 16 0.00 0.00
2:15 am 02:15 Clear 54 12 25 -4 33 33 SSW 16 26 29.59 1002 10 16 0.00 0.00
2:35 am 02:35 Clear 54 12 25 -4 33 33 SW 13 20 29.59 1002 10 16 0.00 0.00
2:55 am 02:55 Clear 54 12 25 -4 33 33 SW 12 19 29.59 1002 10 16 0.00 0.00
3:15 am 03:15 Clear 54 12 25 -4 33 33 SW 10 17 29.59 1002 10 16 0.00 0.00
3:35 am 03:35 Clear 52 11 27 -3 38 38 SW 10 17 29.62 1003 10 16 0.00 0.00
3:55 am 03:55 Clear 52 11 27 -3 38 38 SW 12 19 29.59 1002 10 16 0.00 0.00
4:15 am 04:15 Clear 52 11 27 -3 38 38 SW 12 19 29.59 1002 10 16 0.00 0.00
4:35 am 04:35 Clear 52 11 27 -3 38 38 SW 12 19 29.59 1002 10 16 0.00 0.00
4:55 am 04:55 Clear 50 10 27 -3 40 40 SW 12 19 29.59 1002 10 16 0.00 0.00
5:15 am 05:15 Clear 52 11 27 -3 38 38 SW 13 20 29.59 1002 10 16 0.00 0.00
5:35 am 05:35 Clear 50 10 25 -4 37 37 SW 10 17 29.56 1001 10 16 0.00 0.00
5:55 am 05:55 Clear 48 9 25 -4 40 40 Calm 29.59 1002 10 16 0.00 0.00
6:15 am 06:15 Clear 46 8 25 -4 43 43 SW 6 9 29.56 1001 10 16 0.00 0.00
6:35 am 06:35 Clear 48 9 25 -4 40 40 W 5 7 29.56 1001 10 16 0.00 0.00
6:55 am 06:55 Clear 45 7 25 -4 46 46 Calm 29.59 1002 10 16 0.00 0.00
7:15 am 07:15 Clear 43 6 25 -4 49 49 Calm 29.59 1002 10 16 0.00 0.00
7:35 am 07:35 Sunny 43 6 25 -4 49 49 Calm 29.59 1002 10 16 0.00 0.00
7:55 am 07:55 Sunny 45 7 25 -4 46 46 NNW 3 6 29.59 1002 10 16 0.00 0.00
8:15 am 08:15 Sunny 43 6 27 -3 53 53 Calm 29.59 1002 9 14 0.00 0.00
8:35 am 08:35 Sunny 43 6 28 -2 57 57 S 6 9 29.59 1002 10 16 0.00 0.00
8:55 am 08:55 Sunny 45 7 28 -2 53 53 Calm 29.59 1002 10 16 0.00 0.00
9:15 am 09:15 Sunny 46 8 30 -1 53 53 Calm 29.53 1000 6 10 0.00 0.00
9:35 am 09:35 Sunny 48 9 30 -1 50 50 SSW 3 6 29.53 1000 10 16 0.00 0.00
9:55 am 09:55 Sunny 50 10 30 -1 47 47 S 9 15 29.56 1001 8 13 0.00 0.00
10:15 am 10:15 Sunny 52 11 30 -1 44 44 SSW 8 13 29.56 1001 10 16 0.00 0.00
10:35 am 10:35 Sunny 54 12 32 0 44 44 SW 5 7 29.53 1000 10 16 0.00 0.00
10:55 am 10:55 Sunny 54 12 32 0 44 44 W 6 9 29.53 1000 10 16 0.00 0.00
11:15 am 11:15 Sunny 55 13 30 -1 38 38 WSW 6 9 29.53 1000 10 16 0.00 0.00
11:35 am 11:35 Sunny 55 13 32 0 41 41 WNW 6 9 29.53 1000 10 16 0.00 0.00
11:55 am 11:55 Sunny 57 14 28 -2 33 33 NNW 8 13 29.53 1000 10 16 0.00 0.00
12:15 pm 12:15 Sunny 61 16 30 -1 31 31 N 9 15 29.50 999 10 16 0.00 0.00
12:35 pm 12:35 Sunny 63 17 30 -1 30 30 N 9 15 29.47 998 10 16 0.00 0.00
12:55 pm 12:55 Sunny 63 17 30 -1 30 30 N 9 15 29.47 998 10 16 0.00 0.00
1:15 pm 13:15 Sunny 63 17 30 -1 30 30 NNE 9 15 29.44 997 10 16 0.00 0.00
1:35 pm 13:35 Sunny 64 18 30 -1 28 28 NE 8 13 29.44 997 10 16 0.00 0.00
1:55 pm 13:55 Sunny 64 18 32 0 30 30 NE 9 15 29.44 997 10 16 0.00 0.00
2:15 pm 14:15 Sunny 66 19 32 0 28 28 NE 8 13 29.41 996 10 16 0.00 0.00
2:35 pm 14:35 Sunny 68 20 34 1 28 28 ENE 12 19 29.41 996 10 16 0.00 0.00
2:55 pm 14:55 Sunny 68 20 32 0 26 26 E 12 19 29.41 996 10 16 0.00 0.00
3:15 pm 15:15 Sunny 70 21 34 1 27 27 ENE 13 20 29.41 996 10 16 0.00 0.00
3:35 pm 15:35 Sunny 70 21 34 1 27 27 E 12 19 29.41 996 10 16 0.00 0.00
3:55 pm 15:55 Sunny 70 21 32 0 25 25 E 14 22 29.41 996 10 16 0.00 0.00
4:15 pm 16:15 Sunny 70 21 32 0 25 25 ESE 13 20 29.41 996 10 16 0.00 0.00
4:35 pm 16:35 Sunny 70 21 34 1 27 27 E 12 19 29.41 996 10 16 0.00 0.00
4:55 pm 16:55 Sunny 70 21 34 1 27 27 E 13 20 29.41 996 10 16 0.00 0.00
5:15 pm 17:15 Sunny 68 20 34 1 28 28 ESE 10 17 29.41 996 10 16 0.00 0.00
5:35 pm 17:35 Sunny 66 19 32 0 28 28 E 10 17 29.41 996 10 16 0.00 0.00
5:55 pm 17:55 Sunny 66 19 34 1 30 30 E 13 20 29.41 996 9 14 0.00 0.00
6:15 pm 18:15 Sunny 64 18 34 1 32 32 E 12 19 29.44 997 10 16 0.00 0.00
6:35 pm 18:35 Sunny 64 18 34 1 32 32 E 10 17 29.44 997 10 16 0.00 0.00
6:55 pm 18:55 Sunny 63 17 34 1 34 34 E 12 19 29.44 997 10 16 0.00 0.00
7:15 pm 19:15 Sunny 61 16 34 1 36 36 ENE 9 15 29.44 997 10 16 0.00 0.00
7:35 pm 19:35 Sunny 57 14 34 1 41 41 ENE 7 11 29.47 998 10 16 0.00 0.00
7:55 pm 19:55 Clear 55 13 34 1 44 44 ENE 8 13 29.47 998 10 16 0.00 0.00
8:15 pm 20:15 Clear 54 12 34 1 47 47 ENE 10 17 29.47 998 10 16 0.00 0.00
8:35 pm 20:35 Clear 54 12 36 2 51 51 ENE 14 22 29.47 998 10 16 0.00 0.00
8:55 pm 20:55 Clear 54 12 36 2 51 51 ENE 13 20 29.47 998 10 16 0.00 0.00
9:15 pm 21:15 Clear 55 13 36 2 47 47 ENE 12 19 29.47 998 10 16 0.00 0.00
9:35 pm 21:35 Clear 55 13 36 2 47 47 E 13 20 29.47 998 10 16 0.00 0.00
9:55 pm 21:55 Clear 54 12 36 2 51 51 E 13 20 29.47 998 10 16 0.00 0.00
10:15 pm 22:15 Clear 54 12 36 2 51 51 E 16 26 29.47 998 10 16 0.00 0.00
10:35 pm 22:35 Clear 54 12 37 3 54 54 ENE 14 22 29.47 998 10 16 0.00 0.00
10:55 pm 22:55 Clear 54 12 36 2 51 51 ENE 13 20 29.47 998 10 16 0.00 0.00
11:15 pm 23:15 Clear 52 11 36 2 54 54 ENE 15 24 29.47 998 10 16 0.00 0.00
11:35 pm 23:35 Clear 52 11 36 2 54 54 ENE 16 26 29.47 998 10 16 0.00 0.00
11:55 pm 23:55 Clear 50 10 36 2 58 58 NE 13 20 29.50 999 10 16 0.00 0.00

Powered by AerisWeather